Weather in Uksyanskoye

Russia / Kurgan Oblast     55°56′48″N   63°01′33″E
temp.,
°C
wind,
m/s
gust,
m/s
humid.,
%
clouds,
%
prec.,
mm/h
press.,
hPa
HPBL,
m
20 april, tue
tue2023:00−1ene37461 0.0 1034194
02:00−2ene23475 0.0 103456
05:00−3nne11475 0.0 103510
08:000wnw22355 0.0 1035318
11:00+4w3430100 0.0 10331179
14:00+7wnw46305 0.0 10311641
17:00+9wnw67280 0.0 10291831
20:00+6wnw34440 0.0 102962
21 april, wed
wed2123:00+4wnw48590 0.0 1029148
02:00+2wnw49720 0.0 1030167
05:00+1nw36790 0.0 1031107
08:00+4nnw35670 0.0 1032244
11:00+9nnw34512 0.0 1032858
14:00+11n33413 0.0 10321479
17:00+12n22395 0.0 10321600
20:00+10e22505 0.0 103317
22 april, thu
thu2223:00+7se36665 0.0 103599
02:00+5sse47744 0.0 1035128
05:00+4sse48785 0.0 1036142
08:00+7sse586477 0.0 1036268
11:00+12s6741100 0.0 10361171
14:00+14s6833100 0.0 10351733
17:00+14s7831100 0.0 10351865
20:00+11s3847100 0.0 1035193
23 april, fri
fri2323:00+9s41054100 0.0 1035199
02:00+7s4961100 0.0 1034195
05:00+6s3768100 0.0 1034141
08:00+9s51065100 0.0 1034438
11:00+11ssw4654100 0.0 1033925
14:00+12ssw7951100 0.0 10321810
17:00+12s5757100 0.3 10321499
20:00+11se3354100 0.1 103139
24 april, sat
sat2423:00+9se41060100 0.1 1029237
02:00+9s51157100 0.0 1028333
05:00+8s4954100 0.0 1028261
08:00+9sse3560100 0.0 1027346
11:00+9sse6861100 0.1 10261290
14:00+12sse6947100 0.2 10241788
17:00+13sse6839100 0.2 10222061
20:00+10sse5944100 0.0 1022361